Falls City, NE

1:47 PM CDT on May 20, 2018 (GMT -0500)
Brenner

Weather History for KFNB - January, 2012

Change the Weather History Date:

Friday, January 6, 2012

  Actual Average Record
Temperature  
Mean Temperature 44 °F -  
Max Temperature 57 °F 33 °F 61 °F (1961)
Min Temperature 30 °F 14 °F -11 °F (1971)
Degree Days  
Heating Degree Days 20    
Moisture  
Dew Point 28 °F    
Average Humidity 56    
Maximum Humidity 82    
Minimum Humidity 34    
Precipitation  
Precipitation 0.00 in - - ()
Sea Level Pressure  
Sea Level Pressure 29.86 in    
Wind  
Wind Speed 10 mph (NW)    
Max Wind Speed 18 mph    
Max Gust Speed 25 mph    
Visibility 10 miles    
Events      
Averages and records for this station are not official NWS values.
T = Trace of Precipitation, MM = Missing Value Source: NWS Daily Summary

Daily Weather History Graph

Daily Weather History Graph

Search for Another Location

Airport or City:

Astronomy

Jan. 06, 2012 Rise Set
Actual Time 7:44 AM CST 5:11 PM CST
Civil Twilight 7:14 AM CST 5:41 PM CST
Nautical Twilight 6:40 AM CST 6:15 PM CST
Astronomical Twilight 6:07 AM CST 6:48 PM CST
Moon 3:03 PM CST (1/6) 5:25 AM CST (1/6)
Length of Visible Light 10h 27m
Length of Day
9h 27m
Waxing Gibbous, 93% of the Moon is Illuminated
Jan 6
Waxing Gibbous
Jan 9
Full
Jan 16
Last Quarter
Jan 23
New
Jan 30
First Quarter

Hourly Weather History & Observations

Time (CST) Temp. Windchill Dew Point Humidity Pressure Visibility Wind Dir Wind Speed Gust Speed Precip Events Conditions
12:53 AM 50.0 °F - 32.0 °F 50% 29.73 in 10.0 mi SW 15.0 mph - N/A   Clear
1:53 AM 48.2 °F - 32.0 °F 54% 29.73 in 10.0 mi SW 13.8 mph - N/A   Clear
2:53 AM 46.0 °F 40.6 °F 32.0 °F 58% 29.70 in 10.0 mi SSW 11.5 mph - N/A   Clear
3:53 AM 39.9 °F - 30.0 °F 68% 29.71 in 10.0 mi Calm Calm - N/A   Clear
4:53 AM 39.9 °F 34.5 °F 30.9 °F 70% 29.70 in 10.0 mi SW 8.1 mph - N/A   Clear
5:53 AM 39.9 °F 34.5 °F 30.9 °F 70% 29.73 in 10.0 mi SW 8.1 mph - N/A   Clear
6:53 AM 37.0 °F - 28.9 °F 73% 29.73 in 10.0 mi Calm Calm - N/A   Clear
7:53 AM 34.0 °F - 28.9 °F 82% 29.75 in 10.0 mi Calm Calm - N/A   Clear
8:53 AM 39.0 °F 35.7 °F 32.0 °F 76% 29.78 in 10.0 mi West 4.6 mph - N/A   Clear
9:53 AM 44.1 °F 42.5 °F 32.0 °F 63% 29.80 in 10.0 mi NNW 3.5 mph - N/A   Clear
10:53 AM 53.1 °F - 30.9 °F 43% 29.82 in 10.0 mi NNE 13.8 mph - N/A   Clear
11:53 AM 50.0 °F - 28.4 °F 43% 29.83 in 10.0 mi North 17.3 mph 23.0 mph N/A   Clear
12:53 PM 54.0 °F - 28.9 °F 38% 29.83 in 10.0 mi North 15.0 mph 24.2 mph N/A   Clear
1:53 PM 57.0 °F - 28.9 °F 34% 29.83 in 10.0 mi North 18.4 mph 25.3 mph N/A   Clear
2:53 PM 55.0 °F - 27.0 °F 34% 29.86 in 10.0 mi North 16.1 mph 24.2 mph N/A   Clear
3:53 PM 50.0 °F - 25.0 °F 38% 29.92 in 10.0 mi NNW 16.1 mph 25.3 mph N/A   Clear
5:53 PM 46.0 °F 43.1 °F 25.0 °F 44% 29.98 in 10.0 mi NNW 5.8 mph - N/A   Clear
6:53 PM 42.1 °F 39.2 °F 25.0 °F 51% 30.00 in 10.0 mi WNW 4.6 mph - N/A   Clear
7:53 PM 39.0 °F 34.0 °F 24.1 °F 55% 30.03 in 10.0 mi WNW 6.9 mph - N/A   Clear
8:53 PM 39.0 °F 35.7 °F 21.9 °F 50% 30.05 in 10.0 mi NNW 4.6 mph - N/A   Clear
9:53 PM 34.0 °F 28.8 °F 21.0 °F 59% 30.06 in 10.0 mi WNW 5.8 mph - N/A   Clear
10:53 PM 32.0 °F 25.6 °F 21.0 °F 64% 30.07 in 10.0 mi WNW 6.9 mph - N/A   Clear
11:53 PM 30.0 °F 21.7 °F 19.9 °F 66% 30.08 in 10.0 mi WNW 9.2 mph - N/A   Clear